Time,TemperatureF,DewpointF,PressureIn,WindDirection,WindDirectionDegrees,WindSpeedMPH,WindSpeedGustMPH,Humidity,HourlyPrecipIn,Conditions,Clouds,dailyrainin,SoftwareType,DateUTC
2013-05-09 00:03:00,47.0,44.0,-100.00,NW,324,2.0,11.0,89,0.00,,,0.00,,2013-05-09 04:03:00,
2013-05-09 00:12:00,47.0,44.0,-100.00,NW,324,2.0,11.0,89,0.00,,,0.00,,2013-05-09 04:12:00,
2013-05-09 00:23:00,47.0,44.0,-100.00,NW,324,2.0,11.0,89,0.00,,,0.00,,2013-05-09 04:23:00,
2013-05-09 00:53:00,47.0,44.0,-100.00,NNW,328,1.0,9.0,89,0.00,,,0.00,,2013-05-09 04:53:00,
2013-05-09 01:02:00,47.0,44.0,-100.00,NNW,328,1.0,9.0,89,0.00,,,0.00,,2013-05-09 05:02:00,
2013-05-09 01:12:00,47.0,44.0,-100.00,NNW,328,1.0,9.0,89,0.00,,,0.00,,2013-05-09 05:12:00,
2013-05-09 01:22:00,47.0,44.0,-100.00,NNW,328,1.0,9.0,89,0.00,,,0.00,,2013-05-09 05:22:00,
2013-05-09 01:52:00,48.0,45.0,-100.00,NW,324,2.0,7.0,89,0.00,,,0.00,,2013-05-09 05:52:00,
2013-05-09 02:01:00,48.0,45.0,-100.00,NW,324,2.0,7.0,89,0.00,,,0.00,,2013-05-09 06:01:00,
2013-05-09 02:11:00,48.0,45.0,-100.00,NW,324,2.0,7.0,89,0.00,,,0.00,,2013-05-09 06:11:00,
2013-05-09 02:21:00,48.0,45.0,-100.00,NW,324,2.0,7.0,89,0.00,,,0.00,,2013-05-09 06:21:00,
2013-05-09 02:52:00,46.0,43.0,-100.00,NW,316,1.0,7.0,90,0.00,,,0.00,,2013-05-09 06:52:00,
2013-05-09 03:01:00,46.0,43.0,-100.00,NW,316,1.0,7.0,90,0.00,,,0.00,,2013-05-09 07:01:00,
2013-05-09 03:12:00,46.0,43.0,-100.00,NW,316,1.0,7.0,90,0.00,,,0.00,,2013-05-09 07:12:00,
2013-05-09 03:21:00,46.0,43.0,-100.00,NW,316,1.0,7.0,90,0.00,,,0.00,,2013-05-09 07:21:00,
2013-05-09 03:52:00,45.0,42.0,-100.00,NNW,347,1.0,7.0,89,0.00,,,0.00,,2013-05-09 07:52:00,
2013-05-09 04:02:00,45.0,42.0,-100.00,NNW,347,1.0,7.0,89,0.00,,,0.00,,2013-05-09 08:02:00,
2013-05-09 04:11:00,45.0,42.0,-100.00,NNW,347,1.0,7.0,89,0.00,,,0.00,,2013-05-09 08:11:00,
2013-05-09 04:21:00,45.0,42.0,-100.00,NNW,347,1.0,7.0,89,0.00,,,0.00,,2013-05-09 08:21:00,
2013-05-09 04:52:00,47.0,44.0,-100.00,NNW,337,1.0,7.0,88,0.00,,,0.00,,2013-05-09 08:52:00,
2013-05-09 05:02:00,47.0,44.0,-100.00,NNW,337,1.0,7.0,88,0.00,,,0.00,,2013-05-09 09:02:00,
2013-05-09 05:11:00,47.0,44.0,-100.00,NNW,337,1.0,7.0,88,0.00,,,0.00,,2013-05-09 09:11:00,
2013-05-09 05:21:00,47.0,44.0,-100.00,NNW,337,1.0,7.0,88,0.00,,,0.00,,2013-05-09 09:21:00,
2013-05-09 05:53:00,47.0,44.0,-100.00,NNW,343,2.0,6.0,89,0.00,,,0.00,,2013-05-09 09:53:00,
2013-05-09 06:02:00,47.0,44.0,-100.00,NNW,343,2.0,6.0,89,0.00,,,0.00,,2013-05-09 10:02:00,
2013-05-09 06:12:00,47.0,44.0,-100.00,NNW,343,2.0,6.0,89,0.00,,,0.00,,2013-05-09 10:12:00,
2013-05-09 06:22:00,47.0,44.0,-100.00,NNW,343,2.0,6.0,89,0.00,,,0.00,,2013-05-09 10:22:00,
2013-05-09 06:52:00,45.0,42.0,-100.00,North,358,1.0,7.0,89,0.00,,,0.00,,2013-05-09 10:52:00,
2013-05-09 07:02:00,45.0,42.0,-100.00,North,358,1.0,7.0,89,0.00,,,0.00,,2013-05-09 11:02:00,
2013-05-09 07:12:00,45.0,42.0,-100.00,North,358,1.0,7.0,89,0.00,,,0.00,,2013-05-09 11:12:00,
2013-05-09 07:22:00,45.0,42.0,-100.00,North,358,1.0,7.0,89,0.00,,,0.00,,2013-05-09 11:22:00,
2013-05-09 07:52:00,46.0,43.0,-100.00,ENE,63,0.0,6.0,90,0.00,,,0.00,,2013-05-09 11:52:00,
2013-05-09 08:01:00,46.0,43.0,-100.00,ENE,63,0.0,6.0,90,0.00,,,0.00,,2013-05-09 12:01:00,
2013-05-09 08:11:00,46.0,43.0,-100.00,ENE,63,0.0,6.0,90,0.00,,,0.00,,2013-05-09 12:11:00,
2013-05-09 08:22:00,46.0,43.0,-100.00,ENE,63,0.0,6.0,90,0.00,,,0.00,,2013-05-09 12:22:00,
2013-05-09 08:52:00,42.0,40.0,-100.00,NNW,336,0.0,6.0,93,0.00,,,0.00,,2013-05-09 12:52:00,
2013-05-09 09:01:00,42.0,40.0,-100.00,NNW,336,0.0,6.0,93,0.00,,,0.00,,2013-05-09 13:01:00,
2013-05-09 09:12:00,42.0,40.0,-100.00,NNW,336,0.0,6.0,93,0.00,,,0.00,,2013-05-09 13:12:00,
2013-05-09 09:21:00,42.0,40.0,-100.00,NNW,336,0.0,6.0,93,0.00,,,0.00,,2013-05-09 13:21:00,
2013-05-09 09:52:00,39.0,39.0,-100.00,NW,311,0.0,4.0,99,0.00,,,0.00,,2013-05-09 13:52:00,
2013-05-09 10:01:00,39.0,39.0,-100.00,NW,311,0.0,4.0,99,0.00,,,0.00,,2013-05-09 14:01:00,
2013-05-09 10:11:00,39.0,39.0,-100.00,NW,311,0.0,4.0,99,0.00,,,0.00,,2013-05-09 14:11:00,
2013-05-09 10:21:00,39.0,39.0,-100.00,NW,311,0.0,4.0,99,0.00,,,0.00,,2013-05-09 14:21:00,
2013-05-09 10:52:00,48.0,42.0,-100.00,WNW,292,0.0,0.0,80,0.00,,,0.00,,2013-05-09 14:52:00,
2013-05-09 11:01:00,48.0,42.0,-100.00,WNW,292,0.0,0.0,80,0.00,,,0.00,,2013-05-09 15:01:00,
2013-05-09 11:11:00,48.0,42.0,-100.00,WNW,292,0.0,0.0,80,0.00,,,0.00,,2013-05-09 15:11:00,
2013-05-09 11:21:00,48.0,42.0,-100.00,WNW,292,0.0,0.0,80,0.00,,,0.00,,2013-05-09 15:21:00,
2013-05-09 11:53:00,56.0,43.0,-100.00,NW,306,2.0,6.0,61,0.00,,,0.00,,2013-05-09 15:53:00,
2013-05-09 12:03:00,56.0,43.0,-100.00,NW,306,2.0,6.0,61,0.00,,,0.00,,2013-05-09 16:03:00,
2013-05-09 12:12:00,56.0,43.0,-100.00,NW,306,2.0,6.0,61,0.00,,,0.00,,2013-05-09 16:12:00,
2013-05-09 12:22:00,56.0,43.0,-100.00,NW,306,2.0,6.0,61,0.00,,,0.00,,2013-05-09 16:22:00,
2013-05-09 12:53:00,63.0,44.0,-100.00,WNW,298,2.0,7.0,49,0.00,,,0.00,,2013-05-09 16:53:00,
2013-05-09 13:02:00,63.0,44.0,-100.00,WNW,298,2.0,7.0,49,0.00,,,0.00,,2013-05-09 17:02:00,
2013-05-09 13:21:00,63.0,44.0,-100.00,WNW,298,2.0,7.0,49,0.00,,,0.00,,2013-05-09 17:21:00,
2013-05-09 14:52:00,72.0,32.0,-100.00,ESE,109,3.0,13.0,23,0.00,,,0.00,,2013-05-09 18:52:00,
2013-05-09 15:01:00,72.0,32.0,-100.00,ESE,109,3.0,13.0,23,0.00,,,0.00,,2013-05-09 19:01:00,
2013-05-09 15:52:00,65.0,42.0,-100.00,SSW,205,5.0,14.0,43,-99.99,,,0.00,,2013-05-09 19:52:00,
2013-05-09 16:01:00,65.0,42.0,-100.00,SSW,205,5.0,14.0,43,-99.99,,,0.00,,2013-05-09 20:01:00,
2013-05-09 16:11:00,65.0,42.0,-100.00,SSW,205,5.0,14.0,43,-99.99,,,0.00,,2013-05-09 20:11:00,
2013-05-09 16:21:00,65.0,42.0,-100.00,SSW,205,5.0,14.0,43,-99.99,,,0.00,,2013-05-09 20:21:00,
2013-05-09 16:52:00,63.0,42.0,-100.00,NNW,347,2.0,9.0,47,0.00,,,0.00,,2013-05-09 20:52:00,
2013-05-09 17:01:00,63.0,42.0,-100.00,NNW,347,2.0,9.0,47,0.00,,,0.00,,2013-05-09 21:01:00,
2013-05-09 17:11:00,63.0,42.0,-100.00,NNW,347,2.0,9.0,47,0.00,,,0.00,,2013-05-09 21:11:00,
2013-05-09 17:22:00,63.0,42.0,-100.00,NNW,347,2.0,9.0,47,0.00,,,0.00,,2013-05-09 21:22:00,
2013-05-09 17:53:00,68.0,41.0,-100.00,ENE,58,5.0,13.0,37,0.00,,,0.00,,2013-05-09 21:53:00,
2013-05-09 18:03:00,68.0,41.0,-100.00,ENE,58,5.0,13.0,37,0.00,,,0.00,,2013-05-09 22:03:00,
2013-05-09 18:12:00,68.0,41.0,-100.00,ENE,58,5.0,13.0,37,0.00,,,0.00,,2013-05-09 22:12:00,
2013-05-09 18:22:00,68.0,41.0,-100.00,ENE,58,5.0,13.0,37,0.00,,,0.00,,2013-05-09 22:22:00,
2013-05-09 18:52:00,64.0,40.0,-100.00,NW,320,4.0,13.0,42,0.00,,,0.00,,2013-05-09 22:52:00,
2013-05-09 19:02:00,64.0,40.0,-100.00,NW,320,4.0,13.0,42,0.00,,,0.00,,2013-05-09 23:02:00,
2013-05-09 19:11:00,64.0,40.0,-100.00,NW,320,4.0,13.0,42,0.00,,,0.00,,2013-05-09 23:11:00,
2013-05-09 19:21:00,64.0,40.0,-100.00,NW,320,4.0,13.0,42,0.00,,,0.00,,2013-05-09 23:21:00,
2013-05-09 19:52:00,68.0,41.0,-100.00,NW,313,4.0,15.0,38,0.00,,,0.00,,2013-05-09 23:52:00,
2013-05-09 20:01:00,68.0,41.0,-100.00,NW,313,4.0,15.0,38,0.00,,,0.00,,2013-05-10 00:01:00,
2013-05-09 20:11:00,68.0,41.0,-100.00,NW,313,4.0,15.0,38,0.00,,,0.00,,2013-05-10 00:11:00,
2013-05-09 20:21:00,68.0,41.0,-100.00,NW,313,4.0,15.0,38,0.00,,,0.00,,2013-05-10 00:21:00,
2013-05-09 20:52:00,60.0,46.0,-100.00,NNW,336,4.0,12.0,59,0.00,,,0.00,,2013-05-10 00:52:00,
2013-05-09 21:01:00,60.0,46.0,-100.00,NNW,336,4.0,12.0,59,0.00,,,0.00,,2013-05-10 01:01:00,
2013-05-09 21:11:00,60.0,46.0,-100.00,NNW,336,4.0,12.0,59,0.00,,,0.00,,2013-05-10 01:11:00,
2013-05-09 21:21:00,60.0,46.0,-100.00,NNW,336,4.0,12.0,59,0.00,,,0.00,,2013-05-10 01:21:00,
2013-05-09 21:52:00,54.0,51.0,-100.00,SE,138,1.0,10.0,89,0.00,,,0.00,,2013-05-10 01:52:00,
2013-05-09 22:01:00,54.0,51.0,-100.00,SE,138,1.0,10.0,89,0.00,,,0.00,,2013-05-10 02:01:00,
2013-05-09 22:11:00,54.0,51.0,-100.00,SE,138,1.0,10.0,89,0.00,,,0.00,,2013-05-10 02:11:00,
2013-05-09 22:21:00,54.0,51.0,-100.00,SE,138,1.0,10.0,89,0.00,,,0.00,,2013-05-10 02:21:00,
2013-05-09 22:52:00,52.0,50.0,-100.00,NNW,347,2.0,6.0,93,0.00,,,0.00,,2013-05-10 02:52:00,
2013-05-09 23:01:00,52.0,50.0,-100.00,NNW,347,2.0,6.0,93,0.00,,,0.00,,2013-05-10 03:01:00,
2013-05-09 23:11:00,52.0,50.0,-100.00,NNW,347,2.0,6.0,93,0.00,,,0.00,,2013-05-10 03:11:00,
2013-05-09 23:21:00,52.0,50.0,-100.00,NNW,347,2.0,6.0,93,0.00,,,0.00,,2013-05-10 03:21:00,
2013-05-09 23:53:00,52.0,46.0,-100.00,North,358,4.0,11.0,81,0.00,,,0.00,,2013-05-10 03:53:00,